This demonstration page uses our WeatherBlox Daily Observations layout. Learn more.

39.29038, -76.61219

Hourly Observations for December 15, 2019

Temp ( °F °C ) Dew Point ( °F °C ) Humidity (%) Winds ( mph kmh ) Pressure ( in mb ) Visibility ( mi km ) Precip ( " mm )
12:54 am 00:54 undefined 44 6.7 32 0 63 63 undefined N/A 29.64 1004 N/A 0 0
1:54 am 01:54 undefined 44 6.7 32 0 63 63 undefined N/A 29.68 1005 N/A 0 0
2:54 am 02:54 undefined 45 7.2 33 0.6 63 63 undefined N/A 29.72 1006 N/A 0 0
3:54 am 03:54 undefined 45 7.2 33 0.6 63 63 undefined N/A 29.73 1007 N/A 0 0
4:54 am 04:54 undefined 46 7.8 34 1.1 63 63 undefined N/A 29.76 1008 N/A 0 0
5:54 am 05:54 undefined 46 7.8 34 1.1 63 63 undefined N/A 29.78 1008 N/A 0 0
6:54 am 06:54 undefined 45 7.2 33 0.6 63 63 undefined N/A 29.78 1009 N/A 0 0
7:54 am 07:54 undefined 44 6.7 33 0.6 65 65 undefined N/A 29.81 1010 N/A 0 0
8:54 am 08:54 undefined 47 8.3 34 1.1 61 61 undefined N/A 29.88 1012 N/A 0 0
9:54 am 09:54 undefined 51 10.6 33 0.6 50 50 undefined N/A 29.93 1014 N/A 0 0
10:54 am 10:54 undefined 52 11.1 32 0 47 47 undefined N/A 29.93 1014 N/A 0 0
11:54 am 11:54 undefined 52 11.1 32 0 47 47 undefined N/A 29.94 1014 N/A 0 0
12:54 pm 12:54 undefined 51 10.6 29 -1.7 43 43 undefined N/A 29.94 1014 N/A 0 0
1:54 pm 13:54 undefined 50 10 28 -2.2 43 43 undefined N/A 29.95 1014 N/A 0 0
2:54 pm 14:54 undefined 50 10 27 -2.8 41 41 undefined N/A 29.95 1014 N/A 0 0
3:54 pm 15:54 undefined 48 8.9 26 -3.3 42 42 undefined N/A 30 1016 N/A 0 0
4:54 pm 16:54 undefined 46 7.8 24 -4.4 42 42 undefined N/A 30.06 1018 N/A 0 0
5:54 pm 17:54 undefined 44 6.7 22 -5.6 41 41 undefined N/A 30.09 1019 N/A 0 0
6:54 pm 18:54 undefined 42 5.6 23 -5 47 47 undefined N/A 30.13 1020 N/A 0 0
7:54 pm 19:54 undefined 40 4.4 22 -5.6 49 49 undefined N/A 30.14 1021 N/A 0 0
8:54 pm 20:54 undefined 40 4.4 21 -6.1 47 47 undefined N/A 30.16 1021 N/A 0 0
9:54 pm 21:54 undefined 39 3.9 21 -6.1 48 48 undefined N/A 30.22 1023 N/A 0 0
10:54 pm 22:54 undefined 39 3.9 21 -6.1 48 48 undefined N/A 30.22 1023 N/A 0 0
11:54 pm 23:54 undefined 39 3.9 21 -6.1 48 48 undefined N/A 30.22 1024 N/A 0 0

Powered by AerisWeather